Wetbulb
55.26 50.57 48.40 51.44 51.63 52.78 51.22 48.95 49.54 53.70 55.72 52.99 50.60 50.25 52.30 59.97 64.16 64.70 64.80 65.08 65.42 65.77 67.22 67.74 68.38 69.36 70.04 69.90 70.32 71.18 71.31 71.19 72.53 71.82 70.66 69.89 70.21 70.94 71.48 71.74 70.99 70.06 70.98 71.44
50.93 48.15 53.75 54.80 54.53 50.96 49.52 49.57 48.94 52.20 54.39 51.06 50.03 50.25 54.82 58.81 58.24 63.85 64.63 65.13 65.74 65.98 66.04 66.83 67.49 68.83 69.28 69.68 70.32 70.59 71.05 71.77 72.58 72.49 71.35 71.20 71.06 70.74 70.66 71.15 71.37 71.39 71.47 71.90
48.47 52.62 56.45 54.76 50.60 49.77 47.29 49.10 48.82 49.85 51.62 51.33 52.35 51.73 55.64 59.24 61.12 60.50 64.31 66.01 66.44 65.66 65.35 66.52 68.44 69.03 69.65 69.36 70.89 70.92 71.32 72.50 72.96 72.54 72.11 72.55 71.96 71.68 70.26 69.80 70.45 70.75 70.96 71.69
51.49 56.10 55.14 53.40 49.57 49.36 45.69 51.76 52.14 52.05 46.37 43.28 49.12 41.96 51.32 55.01 56.50 58.27 59.96 63.87 66.62 65.75 66.05 68.17 68.88 67.91 67.91 70.38 71.83 72.58 71.87 71.85 71.75 71.08 70.71 70.85 70.30 68.74 70.12 71.37 71.54 71.42 71.29 70.33
51.22 52.79 52.49 51.82 51.34 52.18 49.16 53.73 52.74 52.86 46.49 43.79 48.49 46.45 49.21 53.24 52.08 55.36 63.20 65.05 64.37 66.06 67.86 63.88 64.89 66.51 68.07 70.04 72.25 73.36 71.42 70.03 70.06 69.96 69.41 69.13 70.47 70.23 70.40 70.61 70.95 71.20 71.56 71.52
51.05 55.02 52.63 52.30 53.29 52.65 53.78 50.52 48.25 46.65 44.44 40.14 47.41 47.45 48.38 51.59 53.37 55.59 59.58 65.11 64.74 65.07 65.35 63.15 64.56 67.34 65.34 67.82 72.83 74.36 72.17 70.59 70.25 70.00 70.16 70.63 71.00 71.41 70.09 69.69 70.20 71.40 72.19 72.07
49.11 50.29 51.82 52.47 47.82 50.36 49.28 43.25 38.65 39.00 40.27 39.40 46.59 48.00 48.13 54.56 56.34 58.33 59.37 60.38 64.49 64.28 65.13 64.54 64.47 64.66 65.42 65.91 67.94 74.71 73.65 72.59 72.60 70.92 71.41 72.11 72.89 72.05 71.40 71.03 70.27 70.46 71.62 71.34
43.09 43.59 49.64 51.49 48.90 46.95 46.44 44.12 39.32 36.05 38.82 43.08 47.77 45.42 50.84 59.05 60.42 61.30 61.09 62.54 64.36 62.98 62.66 64.06 64.77 64.89 66.32 67.65 69.82 69.85 74.32 74.05 74.31 73.53 73.46 73.15 74.08 73.88 73.07 72.26 71.98 71.44 71.80 72.18
40.98 43.46 50.40 52.17 51.43 50.17 45.40 43.02 45.76 42.00 44.07 43.14 45.91 49.74 55.35 58.67 57.70 59.76 61.61 65.00 66.11 65.34 63.97 66.63 69.14 68.94 66.62 68.43 66.61 67.83 71.39 73.03 73.58 74.36 73.42 73.94 74.11 74.45 73.53 73.15 72.60 72.53 71.75 72.61
45.65 41.65 48.59 51.18 52.40 50.55 48.32 48.81 43.10 42.32 40.64 40.10 45.76 46.74 49.44 55.51 55.95 60.27 58.54 60.03 62.53 63.27 66.04 66.81 67.71 68.74 69.88 70.01 70.28 71.82 72.59 67.97 67.10 65.75 72.82 74.14 74.57 74.73 75.09 73.82 72.27 72.06 70.36 68.21
46.65 43.15 45.51 50.68 47.65 46.76 47.41 44.97 45.22 45.12 45.42 40.88 39.75 43.74 53.20 54.62 56.95 59.28 58.12 60.10 61.01 60.69 64.33 65.73 65.90 67.20 68.80 69.68 70.26 70.89 71.63 70.29 67.32 69.47 72.69 73.37 74.12 74.62 74.90 73.87 73.55 72.29 71.55 68.63
51.02 42.40 41.55 43.83 52.14 55.01 50.42 49.02 45.77 42.86 42.63 43.70 42.84 44.58 56.32 57.16 58.44 58.90 60.50 63.11 62.58 60.16 63.41 64.78 61.79 65.97 66.98 67.44 68.19 69.00 69.16 69.46 70.57 70.66 71.42 70.86 73.62 74.02 74.01 73.26 72.89 72.83 72.02 70.95
51.46 43.95 40.35 43.43 48.67 49.61 50.33 49.39 47.95 46.50 42.81 41.50 42.29 45.18 56.13 56.42 55.34 60.34 62.49 62.82 61.74 65.42 65.76 64.43 61.51 63.48 64.75 62.53 64.42 66.38 66.75 66.83 68.29 68.81 71.36 70.55 70.66 71.62 70.86 72.45 72.85 71.33 70.47 69.35
54.74 43.59 43.28 40.77 45.75 47.60 48.46 51.93 51.08 46.51 42.67 42.24 43.69 46.73 51.16 53.50 54.29 55.00 55.64 62.93 63.86 64.34 64.55 63.84 61.74 60.57 59.38 58.84 61.19 63.51 63.64 64.49 65.95 66.60 68.21 69.03 69.38 68.22 69.90 70.57 70.96 71.35 70.47 69.47
49.40 44.17 47.59 45.91 51.92 52.54 51.27 50.74 51.07 48.03 48.21 43.04 46.50 49.01 49.81 52.89 54.44 55.89 57.45 61.36 64.30 63.87 63.86 63.44 62.98 61.54 61.09 60.10 62.95 63.42 63.54 63.63 63.66 64.60 64.77 64.86 67.61 67.68 68.41 68.74 70.35 70.55 69.24 69.64
49.54 45.01 46.35 44.96 51.70 51.73 49.86 51.27 51.70 52.32 52.38 52.22 51.34 50.39 53.58 55.17 57.26 57.35 57.58 57.54 59.58 61.22 63.70 63.87 64.15 63.63 61.64 61.83 63.30 63.31 62.89 63.22 63.30 62.97 63.27 64.61 64.65 65.31 65.17 65.77 67.39 69.48 69.45 67.57
48.46 45.76 43.00 41.52 46.76 47.65 44.92 48.51 50.98 51.44 52.33 52.42 49.17 51.21 55.66 55.10 56.43 55.54 55.88 57.14 57.25 58.55 59.33 58.82 59.75 61.16 61.54 62.19 63.36 64.39 62.71 63.09 63.01 63.11 63.09 63.04 62.97 63.73 64.21 64.83 65.26 64.41 66.06 67.75
47.39 45.68 43.08 41.54 42.28 37.52 45.37 54.30 54.81 52.49 53.34 53.59 52.83 53.42 54.21 54.61 54.57 54.31 54.61 53.42 54.12 55.29 56.01 56.11 56.20 56.85 59.37 59.66 60.37 60.59 61.81 62.96 63.87 63.79 62.65 62.59 62.37 62.99 63.70 63.06 63.65 64.10 64.34 64.59
49.31 45.07 41.86 40.10 38.94 43.34 49.79 51.21 50.91 49.65 48.54 53.69 51.35 52.66 53.67 54.37 54.31 52.78 55.17 55.14 54.50 54.61 54.81 55.41 57.24 58.73 59.26 59.56 60.79 60.83 61.04 61.86 62.05 62.64 63.28 63.54 62.95 63.00 63.35 63.00 63.32 63.88 64.00 64.05
48.31 46.64 44.70 39.69 38.34 37.56 47.38 53.75 54.95 53.90 44.23 53.14 52.20 51.54 51.14 50.99 44.51 47.51 52.82 55.74 56.28 56.92 57.28 57.32 57.86 57.59 57.30 57.81 57.62 56.78 57.22 57.42 58.25 59.59 61.09 62.48 63.47 63.86 63.35 63.53 63.38 63.05 63.67 64.08
44.71 44.74 42.71 41.56 39.62 45.78 51.44 53.78 55.74 44.28 44.72 51.88 52.24 51.22 50.91 48.10 48.83 51.34 55.52 56.03 56.38 56.94 57.67 58.38 57.91 57.13 57.30 58.32 58.39 57.87 58.61 59.05 60.89 62.69 63.18 63.34 62.81 62.39 63.52 63.44 63.13 63.54 63.63 63.63
43.67 42.43 42.77 43.74 42.40 40.46 53.30 51.97 47.29 49.18 50.13 51.62 52.16 51.72 52.06 51.79 53.77 54.41 55.29 55.63 56.63 56.55 57.84 58.94 57.92 58.00 58.95 59.08 58.79 58.79 59.73 61.64 62.34 62.59 61.85 62.00 62.13 63.26 64.46 63.06 63.46 62.82 62.31 61.74
44.81 46.28 44.78 44.68 44.95 49.89 51.47 51.20 51.46 52.01 50.90 50.75 52.53 53.65 54.20 53.51 53.45 55.04 54.68 55.03 55.56 55.89 56.08 56.94 55.87 56.10 57.11 58.31 58.58 58.03 59.97 60.94 61.10 60.52 60.89 61.17 61.50 61.87 62.40 62.16 61.09 60.86 60.91 60.88
49.30 49.39 46.71 46.54 49.30 50.55 52.12 52.65 53.84 53.71 54.31 55.17 55.57 54.79 55.04 53.69 53.90 53.22 53.52 53.77 54.16 54.85 55.48 56.40 56.36 56.05 55.51 57.16 58.03 58.27 59.58 59.92 59.38 59.20 59.69 60.62 60.55 60.85 61.02 61.39 62.08 61.41 60.84 60.21
49.81 49.79 47.56 47.47 49.38 51.13 52.83 53.23 54.94 56.42 56.51 56.48 56.75 56.03 54.76 53.93 53.27 53.26 52.84 53.23 54.61 54.90 56.18 57.16 57.00 56.56 56.81 57.75 58.21 59.52 59.53 59.74 58.73 59.24 59.43 59.67 59.99 59.95 60.53 60.69 60.17 60.93 61.77 60.50
48.98 47.97 46.31 45.41 49.87 49.19 50.14 54.98 56.98 55.65 55.18 55.71 55.03 54.57 54.76 53.79 52.65 53.19 53.75 54.91 55.09 55.53 56.76 56.88 57.37 57.83 58.13 58.37 58.78 60.23 58.39 57.36 57.09 58.07 59.90 60.20 60.16 60.54 61.17 60.77 60.57 55.84 54.45 52.76
MSLP
1003.82 1004.53 1004.38 1003.74 1004.04 1003.72 1003.25 1002.78 1002.42 1001.80 1001.88 1002.31 1002.60 1002.91 1002.99 1003.90 1004.69 1005.18 1005.67 1006.03 1006.15 1006.32 1006.26 1006.65 1007.40 1008.17 1008.85 1009.19 1009.71 1010.22 1010.73 1010.99 1011.72 1012.77 1013.75 1014.19 1014.21 1014.28 1014.44 1014.40 1014.58 1014.69 1015.04 1015.02
1004.81 1004.53 1003.50 1003.43 1003.14 1002.45 1002.42 1002.46 1002.24 1002.11 1001.98 1002.47 1002.77 1003.47 1003.83 1003.74 1004.44 1004.46 1005.12 1005.70 1005.79 1006.12 1006.23 1006.89 1008.04 1008.70 1008.78 1008.96 1009.51 1010.21 1010.70 1011.15 1011.40 1011.92 1012.74 1013.18 1013.56 1013.84 1013.88 1014.01 1014.18 1014.25 1014.63 1014.78
1005.07 1003.59 1003.12 1003.15 1002.22 1002.13 1002.41 1002.50 1002.45 1002.52 1002.46 1002.67 1003.53 1004.62 1004.92 1004.88 1004.97 1004.58 1005.35 1005.45 1006.01 1006.95 1007.43 1007.90 1007.37 1007.42 1008.78 1009.43 1009.54 1009.91 1010.27 1010.69 1011.16 1011.48 1012.27 1013.06 1013.54 1013.86 1014.16 1014.22 1014.13 1013.90 1013.96 1014.23
1004.40 1002.80 1002.61 1002.19 1001.77 1001.93 1002.53 1002.38 1002.40 1002.76 1003.63 1004.14 1004.43 1006.06 1005.88 1005.93 1005.52 1005.94 1005.33 1005.98 1006.53 1006.85 1007.47 1007.93 1008.31 1008.17 1008.61 1009.21 1009.59 1009.58 1010.08 1010.54 1010.86 1011.32 1011.91 1012.39 1012.95 1013.44 1013.44 1013.35 1013.64 1013.68 1013.53 1013.72
1003.29 1002.43 1001.87 1001.79 1001.46 1001.48 1002.22 1002.30 1002.71 1003.32 1004.31 1005.27 1005.87 1006.47 1006.22 1006.38 1006.54 1007.14 1007.13 1006.77 1006.67 1006.14 1005.24 1006.10 1007.81 1008.81 1008.85 1009.30 1009.42 1009.75 1009.86 1010.58 1010.80 1011.06 1011.43 1012.07 1012.46 1012.78 1012.75 1013.21 1013.27 1013.33 1013.28 1013.24
1003.38 1002.24 1001.68 1001.00 1000.94 1001.26 1002.04 1002.68 1003.71 1004.70 1005.78 1007.03 1006.54 1006.95 1007.32 1007.78 1007.78 1008.06 1008.68 1008.45 1007.63 1006.83 1006.28 1006.94 1007.56 1008.90 1009.18 1008.77 1009.13 1009.50 1009.39 1009.39 1009.94 1010.44 1011.03 1011.40 1011.72 1012.22 1012.62 1012.74 1012.96 1012.93 1012.91 1012.83
1003.31 1002.30 1001.33 1000.78 1001.14 1001.58 1002.51 1004.61 1005.85 1007.16 1007.80 1008.29 1007.49 1007.52 1007.66 1008.12 1007.93 1008.05 1007.96 1008.44 1008.48 1007.98 1007.66 1008.26 1008.52 1009.06 1009.35 1009.11 1008.56 1008.29 1008.56 1008.53 1008.88 1009.78 1010.49 1010.84 1011.14 1011.30 1011.64 1012.09 1012.13 1012.24 1012.55 1012.34
1004.06 1002.71 1001.22 1000.87 1001.20 1001.98 1003.12 1004.74 1006.49 1007.89 1008.92 1009.25 1008.92 1008.79 1007.57 1008.20 1007.45 1008.13 1008.74 1009.21 1010.00 1010.47 1009.01 1008.98 1008.66 1008.83 1008.97 1008.48 1006.52 1009.46 1010.19 1009.33 1008.76 1009.10 1009.70 1009.88 1010.12 1010.55 1010.84 1011.10 1011.51 1011.86 1011.78 1011.59
1003.92 1002.87 1001.00 1000.64 1000.74 1001.77 1003.03 1004.41 1005.40 1007.21 1008.75 1009.94 1010.29 1009.53 1008.24 1007.71 1008.62 1008.37 1009.03 1009.64 1010.38 1011.10 1010.15 1009.69 1008.88 1008.24 1008.31 1007.39 1006.38 1008.93 1007.76 1005.19 1009.10 1009.62 1009.55 1009.90 1009.40 1009.86 1010.31 1010.29 1010.56 1010.89 1011.03 1011.16
1003.43 1003.15 1001.82 1000.93 1000.93 1001.75 1002.40 1003.58 1005.54 1007.41 1009.29 1010.77 1010.69 1009.94 1008.65 1008.47 1009.00 1008.39 1008.96 1010.10 1011.56 1012.05 1009.60 1009.59 1009.10 1008.64 1008.64 1008.33 1007.87 1008.93 1009.61 1010.70 1009.28 1009.86 1010.07 1009.67 1009.13 1009.09 1009.34 1009.59 1010.11 1010.20 1010.42 1010.86
1003.21 1003.63 1003.01 1002.17 1002.40 1002.56 1002.97 1004.14 1005.85 1007.44 1008.97 1010.37 1010.69 1009.71 1007.62 1008.01 1008.67 1008.71 1008.80 1009.58 1011.02 1011.48 1009.37 1009.46 1009.15 1009.26 1009.24 1009.00 1008.50 1008.24 1009.28 1009.90 1010.19 1009.95 1010.19 1009.18 1008.66 1008.61 1008.90 1009.26 1009.54 1009.75 1010.04 1010.63
1002.79 1004.07 1004.42 1004.05 1003.18 1002.64 1003.65 1005.07 1006.43 1008.60 1009.38 1010.19 1010.01 1008.64 1007.06 1006.98 1008.01 1008.00 1008.61 1008.73 1009.80 1009.85 1009.53 1010.23 1010.15 1009.93 1010.14 1009.83 1009.59 1008.95 1008.95 1009.13 1009.29 1009.02 1008.45 1008.01 1008.04 1008.26 1008.57 1008.80 1009.07 1009.45 1009.42 1009.86
1002.30 1004.40 1005.52 1005.15 1004.36 1003.85 1004.61 1005.70 1006.52 1007.57 1008.99 1009.85 1009.78 1008.76 1007.07 1008.10 1008.04 1008.04 1008.60 1009.23 1010.17 1009.95 1009.91 1009.91 1009.86 1010.17 1010.53 1010.43 1010.39 1010.21 1009.82 1009.31 1009.00 1008.77 1008.73 1008.47 1008.29 1008.63 1008.87 1008.92 1008.96 1009.30 1009.48 1009.56
1002.15 1004.88 1005.73 1006.18 1005.79 1005.53 1005.35 1005.78 1006.57 1007.44 1009.12 1009.99 1009.28 1008.90 1008.64 1008.77 1009.09 1009.35 1009.60 1009.89 1010.02 1010.16 1010.33 1010.59 1010.45 1010.23 1009.96 1009.73 1009.96 1009.91 1009.60 1009.35 1009.26 1009.16 1009.17 1009.19 1009.28 1009.55 1009.37 1009.27 1008.93 1008.79 1009.33 1009.23
1003.31 1005.43 1006.03 1006.11 1005.98 1005.85 1006.04 1006.21 1006.68 1007.76 1008.87 1009.20 1009.41 1009.32 1009.80 1009.60 1009.74 1009.94 1009.86 1010.04 1010.37 1010.44 1010.45 1010.46 1010.24 1010.00 1009.65 1009.55 1009.48 1009.24 1008.98 1009.09 1009.19 1009.37 1009.47 1009.58 1009.53 1009.52 1009.44 1009.37 1009.28 1009.11 1009.36 1009.23
1004.35 1005.96 1006.56 1007.18 1006.54 1006.24 1006.57 1006.62 1007.03 1007.82 1008.51 1008.86 1008.86 1009.52 1009.98 1009.86 1009.58 1009.43 1009.81 1010.22 1010.63 1010.67 1010.33 1010.08 1009.92 1009.88 1009.84 1009.53 1009.23 1009.06 1008.91 1008.77 1009.00 1009.29 1009.54 1009.62 1009.65 1009.60 1009.65 1009.64 1009.60 1009.53 1009.25 1009.35
1005.24 1006.37 1007.75 1008.19 1007.57 1007.00 1007.51 1007.92 1007.69 1008.20 1008.05 1008.41 1009.76 1010.40 1010.32 1010.68 1010.75 1011.04 1011.19 1011.09 1011.21 1011.14 1010.91 1010.72 1010.49 1010.12 1009.86 1009.50 1009.12 1009.09 1008.98 1009.01 1008.92 1009.03 1009.06 1009.19 1009.24 1009.26 1009.24 1009.15 1009.20 1009.24 1009.18 1009.19
1005.69 1007.07 1008.24 1009.30 1008.60 1008.98 1009.64 1009.19 1008.68 1009.21 1010.08 1010.31 1010.94 1011.32 1011.32 1011.57 1011.86 1011.75 1011.65 1011.69 1011.71 1011.48 1011.23 1011.05 1010.66 1010.17 1009.74 1009.51 1009.26 1008.95 1008.81 1008.67 1008.61 1008.68 1008.65 1008.61 1008.63 1008.62 1008.58 1008.61 1008.61 1008.69 1008.78 1008.84
1005.16 1007.21 1009.19 1010.07 1010.28 1010.10 1009.49 1009.58 1009.48 1010.35 1012.08 1011.99 1012.03 1012.06 1012.24 1012.18 1012.10 1012.44 1012.27 1012.11 1012.01 1011.86 1011.62 1011.42 1011.11 1010.50 1009.86 1009.59 1009.08 1008.79 1008.53 1008.35 1008.31 1008.22 1008.07 1007.94 1007.90 1007.90 1007.81 1007.97 1008.00 1008.03 1008.19 1008.30
1006.50 1007.24 1008.93 1010.60 1010.99 1010.86 1010.48 1009.80 1009.76 1010.19 1012.20 1012.56 1012.47 1012.70 1012.66 1012.56 1013.32 1013.81 1013.44 1012.99 1012.70 1012.37 1012.03 1011.70 1011.34 1011.04 1010.74 1010.22 1009.77 1009.45 1009.11 1008.73 1008.42 1007.89 1007.59 1007.33 1007.26 1007.18 1007.19 1007.15 1007.17 1007.19 1007.36 1007.50
1007.92 1008.96 1009.93 1010.82 1011.24 1011.07 1010.33 1009.92 1009.46 1011.06 1012.98 1012.62 1012.54 1012.78 1013.02 1013.46 1013.91 1013.77 1013.37 1012.97 1012.94 1012.84 1012.50 1012.07 1011.66 1011.40 1011.01 1010.48 1010.03 1009.74 1009.19 1008.73 1008.09 1007.68 1007.39 1007.11 1006.89 1006.72 1006.59 1006.47 1006.43 1006.44 1006.54 1006.67
1008.68 1009.76 1010.80 1011.56 1012.01 1011.64 1010.39 1010.40 1011.08 1012.32 1012.54 1012.47 1012.65 1013.06 1013.42 1013.72 1013.76 1013.79 1013.82 1013.66 1013.35 1013.06 1012.67 1012.33 1012.17 1011.80 1011.13 1010.52 1009.98 1009.60 1009.03 1008.38 1008.02 1007.54 1007.35 1006.94 1006.53 1006.24 1006.04 1006.00 1005.90 1005.79 1005.88 1006.02
1009.23 1009.60 1010.64 1011.94 1012.38 1011.79 1011.12 1011.48 1011.89 1012.19 1012.44 1012.93 1013.11 1013.39 1013.66 1014.19 1014.47 1014.59 1014.54 1014.34 1013.93 1013.50 1013.06 1012.59 1012.20 1011.63 1011.15 1010.66 1010.20 1009.59 1008.81 1008.35 1007.86 1007.45 1007.10 1006.73 1006.25 1005.87 1005.55 1005.41 1005.33 1005.27 1005.14 1005.20
1009.33 1009.57 1011.25 1011.93 1012.98 1012.35 1012.08 1011.94 1011.82 1012.14 1012.82 1013.09 1013.42 1013.95 1014.30 1014.90 1015.07 1015.04 1014.83 1014.55 1014.14 1013.69 1013.12 1012.57 1011.97 1011.38 1010.88 1010.34 1009.83 1009.25 1008.53 1008.00 1007.47 1007.00 1006.64 1006.20 1005.86 1005.41 1005.02 1004.73 1004.54 1004.41 1004.30 1004.24
1009.67 1009.86 1011.52 1012.79 1012.95 1012.64 1012.48 1012.41 1012.58 1012.84 1013.12 1013.68 1014.04 1014.46 1014.94 1015.19 1015.33 1015.33 1015.07 1014.80 1014.30 1013.79 1013.13 1012.53 1011.99 1011.40 1010.69 1009.98 1009.44 1008.66 1008.01 1007.50 1006.96 1006.41 1005.93 1005.45 1005.11 1004.68 1004.18 1003.73 1003.39 1003.18 1002.87 1002.84
1010.12 1010.46 1011.20 1012.37 1012.33 1012.56 1013.12 1012.96 1012.88 1013.18 1013.85 1014.29 1014.59 1015.15 1015.42 1015.48 1015.57 1015.37 1015.08 1014.79 1014.42 1013.82 1013.13 1012.60 1012.19 1011.54 1010.68 1009.97 1009.26 1008.57 1008.23 1007.87 1007.20 1006.27 1005.36 1004.69 1004.14 1003.70 1003.39 1003.13 1002.67 1002.20 1002.08 1001.83
Wind_Speed
8 2 8 12 6 12 9 2 4 6 7 4 7 3 2 15 16 17 16 16 15 15 14 12 12 15 15 11 14 15 14 12 9 6 5 3 5 5 6 6 8 8 5 8
6 7 13 7 14 1 7 5 5 4 5 4 3 5 4 7 3 15 18 17 17 12 11 8 8 5 13 15 12 10 13 12 10 7 6 3 4 3 3 5 7 9 9 9
5 14 8 9 2 3 5 2 1 1 4 3 6 5 6 2 3 7 9 13 6 5 7 4 10 11 9 12 13 14 14 13 10 9 5 3 3 3 2 4 5 8 10 9
8 15 11 10 3 6 2 3 2 1 5 3 4 5 4 5 7 11 5 14 13 14 8 2 6 5 6 10 9 12 11 12 9 8 7 6 5 4 4 6 6 8 10 10
10 3 6 4 6 5 8 4 1 1 1 3 4 6 9 3 4 9 8 15 15 17 19 12 9 3 5 2 10 10 11 9 7 9 9 6 5 4 3 3 6 7 6 8
11 7 3 8 3 3 2 3 9 6 4 3 4 7 6 6 7 10 6 10 10 11 10 9 13 4 5 6 5 9 12 13 11 11 9 10 9 7 5 4 5 6 5 6
6 6 5 2 3 8 10 8 5 6 6 4 6 6 7 8 7 4 10 13 10 10 7 5 9 5 3 3 4 10 14 16 14 11 12 12 10 8 9 7 6 6 5 5
2 10 6 3 7 9 4 9 7 3 2 3 8 6 6 3 11 9 9 7 3 8 2 2 8 6 6 7 5 5 12 13 10 8 9 9 9 7 8 7 6 7 7 8
3 7 7 8 5 11 4 2 9 5 2 6 3 5 6 9 11 10 8 11 3 7 7 7 2 4 10 9 10 6 10 1 7 7 5 7 9 10 8 8 6 6 5 6
4 2 3 5 4 2 6 5 3 4 3 2 4 5 6 3 5 9 15 11 12 13 10 7 5 10 6 5 7 7 4 9 8 8 6 9 9 9 10 7 8 8 6 6
5 3 8 4 4 3 6 5 5 5 5 7 4 8 8 10 10 11 12 19 18 15 10 6 6 7 7 6 5 4 4 10 7 11 12 8 6 7 7 6 6 7 6 8
5 6 1 2 3 6 5 6 7 6 7 1 3 6 5 10 11 11 19 15 7 1 6 5 7 6 5 5 5 5 5 3 2 5 6 6 5 7 7 6 5 5 6 5
3 2 4 11 10 5 8 4 4 5 3 0 5 6 1 8 7 6 7 6 4 7 7 5 6 4 4 1 3 5 5 4 5 7 7 7 8 3 4 5 4 2 4 5
10 4 8 7 8 3 4 4 5 6 6 4 1 3 8 8 9 7 4 6 7 6 6 3 3 4 4 2 2 4 4 4 4 6 6 7 6 6 5 1 4 3 3 5
7 4 3 1 4 4 2 2 7 6 3 5 4 9 2 5 8 7 8 7 7 5 5 6 6 6 5 5 6 5 4 5 5 5 5 3 4 5 5 6 5 4 4 1
4 2 3 5 3 3 3 7 3 3 4 5 8 6 2 2 5 9 7 8 5 5 5 5 4 4 6 7 7 5 5 5 3 4 3 4 2 0 2 2 4 4 4 2
4 5 4 2 2 5 8 9 13 9 10 8 7 2 2 10 13 11 11 8 7 6 5 4 2 3 4 6 6 5 6 4 4 5 6 6 5 5 5 4 2 2 2 1
5 5 3 3 5 5 1 11 20 20 14 14 10 7 8 7 5 6 6 7 7 7 7 7 6 6 5 1 4 4 3 6 6 6 7 6 7 7 6 5 5 4 3 3
7 6 4 5 3 3 4 4 2 7 7 5 7 7 6 3 1 6 6 5 6 7 6 6 6 6 6 7 7 6 6 7 7 8 9 9 8 8 7 7 7 6 5 4
8 7 7 3 4 3 4 5 2 6 3 2 6 4 4 6 4 4 7 4 6 6 5 7 7 5 6 8 7 7 8 7 8 7 8 7 7 7 8 9 8 6 5 6
4 4 5 2 4 1 3 6 2 5 6 1 6 4 6 5 3 5 5 8 5 5 8 8 7 6 7 8 7 8 7 7 7 7 6 6 7 8 9 8 5 6 7 6
4 5 1 3 5 3 2 5 7 6 2 4 6 5 6 2 4 6 8 8 9 9 12 11 9 10 11 9 7 9 10 10 10 8 7 8 7 7 7 8 9 7 7 7
4 5 6 3 5 4 6 9 3 5 4 4 6 2 4 6 6 7 6 7 7 8 9 11 11 12 12 12 10 12 12 9 8 9 10 10 10 10 9 9 9 7 7 7
4 3 6 6 4 5 6 3 5 7 8 5 4 7 8 6 6 6 6 7 8 7 11 10 13 15 13 12 13 13 14 13 10 8 11 10 9 11 9 7 8 8 8 7
5 4 6 5 2 5 4 5 8 6 5 11 10 11 10 7 6 5 5 6 8 10 11 12 12 14 16 13 14 14 13 11 11 12 11 11 9 11 11 10 9 9 10 10
1 7 5 6 5 7 3 4 5 9 12 8 9 8 6 6 5 6 10 9 9 11 11 11 13 13 13 14 14 13 13 14 13 13 10 10 9 9 8 8 9 11 15 13
Wind_Direction
310 44 252 254 212 243 220 205 294 194 215 124 221 271 341 183 190 176 184 188 195 196 201 182 163 170 177 172 174 177 174 183 158 155 159 163 182 176 187 193 195 207 219 232
357 269 256 256 273 272 21 18 6 22 165 149 192 282 351 30 101 183 180 187 197 184 193 174 123 157 177 185 178 169 182 179 176 173 167 157 150 201 182 179 193 205 207 217
174 258 291 254 324 19 355 123 352 212 354 9 95 350 355 349 64 71 182 190 186 69 95 120 164 167 181 186 181 178 180 183 180 171 133 103 75 72 168 205 210 211 207 212
238 260 238 259 189 111 27 278 132 87 68 227 69 260 319 311 342 83 141 146 118 109 102 346 300 159 143 190 194 178 174 176 179 155 159 161 173 179 202 196 199 204 203 211
247 296 310 236 205 144 217 237 141 276 3 36 339 80 265 68 13 88 90 123 141 154 170 191 224 241 121 186 176 189 174 170 172 170 172 177 187 205 198 188 187 206 201 201
264 258 251 209 194 175 347 12 25 42 93 42 236 117 285 27 320 62 81 129 172 175 206 212 226 220 91 158 159 179 187 189 181 176 181 189 196 199 203 198 205 208 206 205
308 290 276 206 46 355 68 55 352 349 11 230 299 75 225 34 70 71 41 355 179 240 206 198 251 89 21 37 50 194 196 194 186 189 186 198 204 199 205 205 213 202 205 215
210 317 190 205 168 189 198 147 149 249 214 229 11 346 298 104 69 44 52 4 34 314 82 195 275 234 186 222 247 66 276 212 176 173 192 194 202 211 214 200 209 210 207 215
161 274 300 166 168 131 271 207 189 144 69 86 268 279 310 18 38 27 82 53 256 241 190 213 250 146 164 207 218 197 258 135 90 242 220 205 206 215 223 206 205 211 200 205
236 320 309 282 110 185 156 187 34 17 176 98 281 285 233 111 135 61 9 30 312 265 137 156 117 66 51 198 247 191 175 99 271 336 353 255 209 213 220 216 203 214 196 219
152 117 297 23 18 226 350 19 24 107 109 153 179 255 213 186 167 134 139 219 236 243 125 119 65 67 76 71 53 5 101 145 211 255 241 242 234 223 231 223 213 226 190 189
193 133 131 218 267 127 145 109 112 109 299 180 159 277 254 212 174 187 198 213 215 187 108 130 120 107 100 92 68 78 54 61 272 297 284 262 247 240 237 246 232 226 220 200
176 22 41 351 349 11 75 65 144 125 89 130 130 266 31 45 25 70 93 110 152 105 95 66 43 102 155 132 85 143 155 84 53 34 13 13 19 347 273 267 279 251 209 223
80 86 140 173 216 215 3 63 66 98 75 286 294 51 24 86 70 60 79 131 124 130 141 147 173 201 258 262 272 174 132 111 88 58 46 32 15 4 338 236 286 291 235 214
95 97 87 238 84 84 221 351 61 87 191 114 300 101 115 134 132 130 109 114 117 135 155 179 177 204 228 243 256 219 173 153 140 112 88 46 3 352 349 355 345 319 320 29
2 136 111 52 75 144 34 344 12 67 150 80 115 74 295 169 98 49 50 87 115 184 222 236 241 250 257 248 250 257 237 199 147 149 184 195 198 294 328 314 1 346 344 350
78 104 68 332 334 66 28 342 78 64 31 117 100 131 45 61 66 53 56 48 43 47 42 52 61 266 264 272 247 264 221 230 203 206 223 231 227 226 222 238 270 285 307 254
121 90 90 185 26 61 219 88 78 75 51 59 69 54 53 113 125 83 55 53 28 17 8 353 342 333 331 261 276 273 250 225 231 242 246 249 240 238 244 246 247 232 223 235
119 107 70 111 137 131 10 21 352 116 45 37 78 46 60 18 14 32 25 32 9 353 341 318 321 307 308 307 300 247 234 235 235 232 230 234 230 234 230 235 238 231 207 221
61 85 111 113 139 185 239 289 165 120 65 325 104 82 50 38 55 283 337 24 28 15 6 359 351 352 356 339 340 329 305 305 280 262 248 241 237 227 226 226 227 224 212 223
32 19 128 124 115 316 268 317 35 108 207 304 79 67 49 63 190 246 318 7 360 2 351 341 336 327 308 313 321 320 306 294 275 273 267 262 256 246 243 238 220 221 225 222
141 122 147 81 92 216 285 19 108 190 214 89 52 59 79 88 350 5 15 10 359 350 351 344 349 336 326 315 310 299 293 296 297 283 280 278 268 263 257 240 242 227 221 226
35 176 155 134 177 263 32 112 130 161 109 65 98 68 73 47 34 23 353 349 346 343 340 336 328 324 325 319 313 305 303 299 292 297 291 279 268 264 259 249 242 235 221 216
337 128 105 82 313 100 97 91 90 80 107 124 88 73 73 78 40 10 353 346 336 336 333 326 327 328 315 315 310 304 301 294 280 280 288 278 271 268 259 252 247 239 229 223
205 70 111 60 169 81 41 61 107 94 88 83 77 75 68 55 22 358 339 330 336 329 324 327 323 324 317 312 310 306 308 305 291 297 292 282 275 273 268 261 254 246 241 222
340 158 141 193 205 134 119 126 102 67 87 76 87 74 58 55 13 350 355 345 334 325 328 335 340 337 341 336 335 334 354 341 328 315 301 288 280 273 265 260 269 249 243 237